Regional Weather Roundup
Issued by NWS

Home | Current Version | Previous Version | Graphics & Text | Print | Product List | Glossary On
Versions: 1 2 3 4 5 6 7 8 9 10 11 12 13 14 15 16 17 18 19 20 21 22 23 24 25 26 27 28 29 30 31 32 33 34 35 36 37 38 39 40 41 42 43 44 45 46 47 48 49 50
000
ASUS45 KABQ 281310
RWRNM
NEW MEXICO REGIONAL WEATHER ROUNDUP
NATIONAL WEATHER SERVICE ALBUQUERQUE NM
700 AM MDT SUN MAY 28 2017

NOTE: "FAIR" MEANS FEW OR NO CLOUDS BELOW 12,000 FEET AGL WITH NO
       SIGNIFICANT WEATHER OR OBSTRUCTIONS TO VISION.

      THIS PRODUCT IS RELEASED AS TWO VERSIONS.  ONE VERSION NEAR
      THE TOP OF THE HOUR CONTAINING PRELIMINARY DATA FROM ALBUQUERQUE
      AND OTHER STATIONS.  A FINAL VERSION WITH ADDITIONAL DATA IS
      ISSUED ABOUT 10 MINUTES AFTER THE HOUR.

NMZ501-503-504-510>518-281400-
NORTHWEST PLATEAU/NORTHCENTRAL MOUNTAINS

CITY           SKY/WX    TMP DP  RH WIND       PRES   REMARKS
FARMINGTON     FAIR      46  28  49 CALM      30.25R
LOS ALAMOS     FAIR      51  28  39 N9        30.33R
SANTA FE       FAIR      48  41  76 CALM      30.30R
TAOS           FAIR      43  27  52 N3        30.35R
ANGEL FIRE     FAIR      32  30  91 CALM      30.40R

$$
NMZ402-403-502-505>509-281400-
WESTCENTRAL MOUNTAINS/SOUTHWEST MOUNTAINS

CITY           SKY/WX    TMP DP  RH WIND       PRES   REMARKS
GALLUP         FAIR      48  20  32 E6        30.27R
GRANTS         FAIR      44  17  34 W5        30.30R
SILVER CITY    FAIR      51  14  22 N5        30.15R

$$
NMZ407-409-411-412-281400-
SOUTHERN DESERTS

CITY           SKY/WX    TMP DP  RH WIND       PRES   REMARKS
DEMING         FAIR      52  14  22 S3        30.11R
LAS CRUCES     FAIR      62  22  21 SW8       30.13R
HOLLOMAN AFB   FAIR      56  16  20 NE7       30.15R
ALAMOGORDO     FAIR      57  25  28 CALM      30.13R
T OR C         LGT RAIN  60  41  49 NE17G25   30.16R

$$
NMZ519>523-281400-
CENTRAL VALLEYS/CENTRAL HIGHLANDS

CITY           SKY/WX    TMP DP  RH WIND       PRES   REMARKS
ALBUQUERQUE    FAIR      58  41  53 E21       30.23R
DOUBLE EAGLE   SUNNY     54  37  54 N8        30.26R
MORIARTY ARPT  FAIR      44  39  81 CALM      30.32R
CLINES CORNERS FAIR      46  35  65 E12       30.33R
BELEN          FAIR      54  40  58 NW7       30.23R
SOCORRO        FAIR      58  41  52 N12       30.23R

$$
NMZ524>526-539-540-281400-
SOUTHCENTRAL MOUNTAINS

CITY           SKY/WX    TMP DP  RH WIND       PRES   REMARKS
RUIDOSO        PTSUNNY   48  37  66 S7        30.35S

$$
NMZ527>531-281400-
NORTHEAST HIGHLANDS/NORTHEAST PLAINS

CITY           SKY/WX    TMP DP  RH WIND       PRES   REMARKS
LAS VEGAS      FAIR      42  36  79 N7        30.33R
RATON          FAIR      50  32  50 N12       30.30R
CLAYTON        FAIR      51  42  71 NW17      30.25R

$$
NMZ532>537-281400-
EASTCENTRAL PLAINS

CITY           SKY/WX    TMP DP  RH WIND       PRES   REMARKS
SANTA ROSA     FAIR      50  39  65 CALM      30.27R
TUCUMCARI      FAIR      56  42  59 CALM      30.23R
CANNON AFB     FAIR      55  42  63 N16       30.24R
CLOVIS AIRPORT FAIR      54  39  58 N15       30.23R

$$
NMZ028-029-538-281400-
SOUTHEAST PLAINS

CITY           SKY/WX    TMP DP  RH WIND       PRES   REMARKS
ROSWELL        FAIR      61  40  45 N10       30.23R
ARTESIA        PTSUNNY   61  41  48 N15       30.22R
CARLSBAD       FAIR      62  45  53 NW18      30.18R
HOBBS          SUNNY     57  45  62 N22G28    30.17R


$$




USA.gov is the U.S. government's official web portal to all federal, state and local government web resources and services.